Year,Month,Day,Hour,Minute,Value (Times are PST for insolation in W/m^2)
2015,03,29,00,00,0.00
2015,03,29,00,01,0.00
2015,03,29,00,02,0.00
2015,03,29,00,03,0.00
2015,03,29,00,04,0.00
2015,03,29,00,05,0.00
2015,03,29,00,06,0.00
2015,03,29,00,07,0.00
2015,03,29,00,08,0.00
2015,03,29,00,09,0.00
2015,03,29,00,10,0.00
2015,03,29,00,11,0.00
2015,03,29,00,12,0.00
2015,03,29,00,13,0.00
2015,03,29,00,14,0.00
2015,03,29,00,15,0.00
2015,03,29,00,16,0.00
2015,03,29,00,17,0.00
2015,03,29,00,18,0.00
2015,03,29,00,19,0.00
2015,03,29,00,20,0.00
2015,03,29,00,21,0.00
2015,03,29,00,22,0.00
2015,03,29,00,23,0.00
2015,03,29,00,24,0.00
2015,03,29,00,25,0.00
2015,03,29,00,26,0.00
2015,03,29,00,27,0.00
2015,03,29,00,28,0.00
2015,03,29,00,29,0.00
2015,03,29,00,30,0.00
2015,03,29,00,31,0.00
2015,03,29,00,32,0.00
2015,03,29,00,33,0.00
2015,03,29,00,34,0.00
2015,03,29,00,35,0.00
2015,03,29,00,36,0.00
2015,03,29,00,37,0.00
2015,03,29,00,38,0.00
2015,03,29,00,39,0.00
2015,03,29,00,40,0.00
2015,03,29,00,41,0.00
2015,03,29,00,42,0.00
2015,03,29,00,43,0.00
2015,03,29,00,44,0.00
2015,03,29,00,45,0.00
2015,03,29,00,46,0.00
2015,03,29,00,47,0.00
2015,03,29,00,48,0.00
2015,03,29,00,49,0.00
2015,03,29,00,50,0.00
2015,03,29,00,51,0.00
2015,03,29,00,52,0.00
2015,03,29,00,53,0.00
2015,03,29,00,54,0.00
2015,03,29,00,55,0.00
2015,03,29,00,56,0.00
2015,03,29,00,57,0.00
2015,03,29,00,58,0.00
2015,03,29,00,59,0.00
2015,03,29,01,00,0.00
2015,03,29,01,01,0.00
2015,03,29,01,02,0.00
2015,03,29,01,03,0.00
2015,03,29,01,04,0.00
2015,03,29,01,05,0.00
2015,03,29,01,06,0.00
2015,03,29,01,07,0.00
2015,03,29,01,08,0.00
2015,03,29,01,09,0.00
2015,03,29,01,10,0.00
2015,03,29,01,11,0.00
2015,03,29,01,12,0.00
2015,03,29,01,13,0.00
2015,03,29,01,14,0.00
2015,03,29,01,15,0.00
2015,03,29,01,16,0.00
2015,03,29,01,17,0.00
2015,03,29,01,18,0.00
2015,03,29,01,19,0.00
2015,03,29,01,20,0.00
2015,03,29,01,21,0.00
2015,03,29,01,22,0.00
2015,03,29,01,23,0.00
2015,03,29,01,24,0.00
2015,03,29,01,25,0.00
2015,03,29,01,26,0.00
2015,03,29,01,27,0.00
2015,03,29,01,28,0.00
2015,03,29,01,29,0.00
2015,03,29,01,30,0.00
2015,03,29,01,31,0.00
2015,03,29,01,32,0.00
2015,03,29,01,33,0.00
2015,03,29,01,34,0.00
2015,03,29,01,35,0.00
2015,03,29,01,36,0.00
2015,03,29,01,37,0.00
2015,03,29,01,38,0.00
2015,03,29,01,39,0.00
2015,03,29,01,40,0.00
2015,03,29,01,41,0.00
2015,03,29,01,42,0.00
2015,03,29,01,43,0.00
2015,03,29,01,44,0.00
2015,03,29,01,45,0.00
2015,03,29,01,46,0.00
2015,03,29,01,47,0.00
2015,03,29,01,48,0.00
2015,03,29,01,49,0.00
2015,03,29,01,50,0.00
2015,03,29,01,51,0.00
2015,03,29,01,52,0.00
2015,03,29,01,53,0.00
2015,03,29,01,54,0.00
2015,03,29,01,55,0.00
2015,03,29,01,56,0.00
2015,03,29,01,57,0.00
2015,03,29,01,58,0.00
2015,03,29,01,59,0.00
2015,03,29,02,00,0.00
2015,03,29,02,01,0.00
2015,03,29,02,02,0.00
2015,03,29,02,03,0.00
2015,03,29,02,04,0.00
2015,03,29,02,05,0.00
2015,03,29,02,06,0.00
2015,03,29,02,07,0.00
2015,03,29,02,08,0.00
2015,03,29,02,09,0.00
2015,03,29,02,10,0.00
2015,03,29,02,11,0.00
2015,03,29,02,12,0.00
2015,03,29,02,13,0.00
2015,03,29,02,14,0.00
2015,03,29,02,15,0.00
2015,03,29,02,16,0.00
2015,03,29,02,17,0.00
2015,03,29,02,18,0.00
2015,03,29,02,19,0.00
2015,03,29,02,20,0.00
2015,03,29,02,21,0.00
2015,03,29,02,22,0.00
2015,03,29,02,23,0.00
2015,03,29,02,24,0.00
2015,03,29,02,25,0.00
2015,03,29,02,26,0.00
2015,03,29,02,27,0.00
2015,03,29,02,28,0.00
2015,03,29,02,29,0.00
2015,03,29,02,30,0.00
2015,03,29,02,31,0.00
2015,03,29,02,32,0.00
2015,03,29,02,33,0.00
2015,03,29,02,34,0.00
2015,03,29,02,35,0.00
2015,03,29,02,36,0.00
2015,03,29,02,37,0.00
2015,03,29,02,38,0.00
2015,03,29,02,39,0.00
2015,03,29,02,40,0.00
2015,03,29,02,41,0.00
2015,03,29,02,42,0.00
2015,03,29,02,43,0.00
2015,03,29,02,44,0.00
2015,03,29,02,45,0.00
2015,03,29,02,46,0.00
2015,03,29,02,47,0.00
2015,03,29,02,48,0.00
2015,03,29,02,49,0.00
2015,03,29,02,50,0.00
2015,03,29,02,51,0.00
2015,03,29,02,52,0.00
2015,03,29,02,53,0.00
2015,03,29,02,54,0.00
2015,03,29,02,55,0.00
2015,03,29,02,56,0.00
2015,03,29,02,57,0.00
2015,03,29,02,58,0.00
2015,03,29,02,59,0.00
2015,03,29,03,00,0.00
2015,03,29,03,01,0.00
2015,03,29,03,02,0.00
2015,03,29,03,03,0.00
2015,03,29,03,04,0.00
2015,03,29,03,05,0.00
2015,03,29,03,06,0.00
2015,03,29,03,07,0.00
2015,03,29,03,08,0.00
2015,03,29,03,09,0.00
2015,03,29,03,10,0.00
2015,03,29,03,11,0.00
2015,03,29,03,12,0.00
2015,03,29,03,13,0.00
2015,03,29,03,14,0.00
2015,03,29,03,15,0.00
2015,03,29,03,16,0.00
2015,03,29,03,17,0.00
2015,03,29,03,18,0.00
2015,03,29,03,19,0.00
2015,03,29,03,20,0.00
2015,03,29,03,21,0.00
2015,03,29,03,22,0.00
2015,03,29,03,23,0.00
2015,03,29,03,24,0.00
2015,03,29,03,25,0.00
2015,03,29,03,26,0.00
2015,03,29,03,27,0.00
2015,03,29,03,28,0.00
2015,03,29,03,29,0.00
2015,03,29,03,30,0.00
2015,03,29,03,31,0.00
2015,03,29,03,32,0.00
2015,03,29,03,33,0.00
2015,03,29,03,34,0.00
2015,03,29,03,35,0.00
2015,03,29,03,36,0.00
2015,03,29,03,37,0.00
2015,03,29,03,38,0.00
2015,03,29,03,39,0.00
2015,03,29,03,40,0.00
2015,03,29,03,41,0.00
2015,03,29,03,42,0.00
2015,03,29,03,43,0.00
2015,03,29,03,44,0.00
2015,03,29,03,45,0.00
2015,03,29,03,46,0.00
2015,03,29,03,47,0.00
2015,03,29,03,48,0.00
2015,03,29,03,49,0.00
2015,03,29,03,50,0.00
2015,03,29,03,51,0.00
2015,03,29,03,52,0.00
2015,03,29,03,53,0.00
2015,03,29,03,54,0.00
2015,03,29,03,55,0.00
2015,03,29,03,56,0.00
2015,03,29,03,57,0.00
2015,03,29,03,58,0.00
2015,03,29,03,59,0.00
2015,03,29,04,00,0.00
2015,03,29,04,01,0.00
2015,03,29,04,02,0.00
2015,03,29,04,03,0.00
2015,03,29,04,04,0.00
2015,03,29,04,05,0.00
2015,03,29,04,06,0.00
2015,03,29,04,07,0.00
2015,03,29,04,08,0.00
2015,03,29,04,09,0.00
2015,03,29,04,10,0.00
2015,03,29,04,11,0.00
2015,03,29,04,12,0.00
2015,03,29,04,13,0.00
2015,03,29,04,14,0.00
2015,03,29,04,15,0.00
2015,03,29,04,16,0.00
2015,03,29,04,17,0.00
2015,03,29,04,18,0.00
2015,03,29,04,19,0.00
2015,03,29,04,20,0.00
2015,03,29,04,21,0.00
2015,03,29,04,22,0.00
2015,03,29,04,23,0.00
2015,03,29,04,24,0.00
2015,03,29,04,25,0.00
2015,03,29,04,26,0.00
2015,03,29,04,27,0.00
2015,03,29,04,28,0.00
2015,03,29,04,29,0.00
2015,03,29,04,30,0.00
2015,03,29,04,31,0.00
2015,03,29,04,32,0.00
2015,03,29,04,33,0.00
2015,03,29,04,34,0.00
2015,03,29,04,35,0.00
2015,03,29,04,36,0.00
2015,03,29,04,37,0.00
2015,03,29,04,38,0.00
2015,03,29,04,39,0.00
2015,03,29,04,40,0.00
2015,03,29,04,41,0.00
2015,03,29,04,42,0.00
2015,03,29,04,43,0.00
2015,03,29,04,44,0.00
2015,03,29,04,45,0.00
2015,03,29,04,46,0.00
2015,03,29,04,47,0.00
2015,03,29,04,48,0.00
2015,03,29,04,49,0.00
2015,03,29,04,50,0.00
2015,03,29,04,51,0.00
2015,03,29,04,52,0.00
2015,03,29,04,53,0.00
2015,03,29,04,54,0.00
2015,03,29,04,55,0.00
2015,03,29,04,56,0.00
2015,03,29,04,57,0.00
2015,03,29,04,58,0.00
2015,03,29,04,59,0.00
2015,03,29,05,00,0.00
2015,03,29,05,01,0.00
2015,03,29,05,02,0.00
2015,03,29,05,03,0.00
2015,03,29,05,04,0.00
2015,03,29,05,05,0.00
2015,03,29,05,06,0.00
2015,03,29,05,07,0.00
2015,03,29,05,08,0.00
2015,03,29,05,09,0.00
2015,03,29,05,10,0.00
2015,03,29,05,11,0.00
2015,03,29,05,12,0.00
2015,03,29,05,13,0.00
2015,03,29,05,14,0.00
2015,03,29,05,15,0.00
2015,03,29,05,16,0.00
2015,03,29,05,17,0.00
2015,03,29,05,18,0.00
2015,03,29,05,19,0.00
2015,03,29,05,20,0.00
2015,03,29,05,21,0.00
2015,03,29,05,22,0.00
2015,03,29,05,23,0.00
2015,03,29,05,24,0.00
2015,03,29,05,25,0.00
2015,03,29,05,26,0.00
2015,03,29,05,27,0.00
2015,03,29,05,28,0.00
2015,03,29,05,29,0.00
2015,03,29,05,30,0.00
2015,03,29,05,31,0.00
2015,03,29,05,32,0.00
2015,03,29,05,33,0.00
2015,03,29,05,34,0.00
2015,03,29,05,35,0.00
2015,03,29,05,36,0.00
2015,03,29,05,37,0.00
2015,03,29,05,38,0.00
2015,03,29,05,39,0.00
2015,03,29,05,40,0.00
2015,03,29,05,41,0.00
2015,03,29,05,42,0.00
2015,03,29,05,43,0.00
2015,03,29,05,44,0.00
2015,03,29,05,45,0.00
2015,03,29,05,46,0.00
2015,03,29,05,47,0.00
2015,03,29,05,48,0.00
2015,03,29,05,49,0.00
2015,03,29,05,50,0.00
2015,03,29,05,51,0.00
2015,03,29,05,52,0.00
2015,03,29,05,53,0.00
2015,03,29,05,54,0.00
2015,03,29,05,55,0.00
2015,03,29,05,56,0.00
2015,03,29,05,57,0.00
2015,03,29,05,58,0.00
2015,03,29,05,59,0.00
2015,03,29,06,00,0.00
2015,03,29,06,01,0.00
2015,03,29,06,02,0.00
2015,03,29,06,03,0.00
2015,03,29,06,04,0.00
2015,03,29,06,05,0.00
2015,03,29,06,06,0.00
2015,03,29,06,07,0.00
2015,03,29,06,08,0.00
2015,03,29,06,09,0.00
2015,03,29,06,10,0.00
2015,03,29,06,11,0.00
2015,03,29,06,12,0.00
2015,03,29,06,13,0.00
2015,03,29,06,14,0.00
2015,03,29,06,15,0.00
2015,03,29,06,16,0.00
2015,03,29,06,17,0.00
2015,03,29,06,18,0.00
2015,03,29,06,19,0.00
2015,03,29,06,20,0.00
2015,03,29,06,21,0.00
2015,03,29,06,22,0.00
2015,03,29,06,23,0.00
2015,03,29,06,24,0.00
2015,03,29,06,25,0.00
2015,03,29,06,26,0.00
2015,03,29,06,27,0.00
2015,03,29,06,28,0.00
2015,03,29,06,29,0.00
2015,03,29,06,30,0.00
2015,03,29,06,31,0.00
2015,03,29,06,32,0.00
2015,03,29,06,33,0.00
2015,03,29,06,34,0.00
2015,03,29,06,35,0.00
2015,03,29,06,36,0.00
2015,03,29,06,37,0.00
2015,03,29,06,38,0.00
2015,03,29,06,39,0.00
2015,03,29,06,40,0.00
2015,03,29,06,41,0.00
2015,03,29,06,42,0.00
2015,03,29,06,43,0.00
2015,03,29,06,44,0.00
2015,03,29,06,45,0.00
2015,03,29,06,46,0.00
2015,03,29,06,47,0.00
2015,03,29,06,48,0.00
2015,03,29,06,49,0.00
2015,03,29,06,50,0.00
2015,03,29,06,51,0.00
2015,03,29,06,52,0.00
2015,03,29,06,53,0.00
2015,03,29,06,54,0.00
2015,03,29,06,55,0.00
2015,03,29,06,56,0.00
2015,03,29,06,57,0.00
2015,03,29,06,58,0.00
2015,03,29,06,59,0.00
2015,03,29,07,00,0.00
2015,03,29,07,01,0.00
2015,03,29,07,02,0.00
2015,03,29,07,03,0.00
2015,03,29,07,04,0.00
2015,03,29,07,05,0.00
2015,03,29,07,06,0.00
2015,03,29,07,07,0.00
2015,03,29,07,08,0.00
2015,03,29,07,09,0.00
2015,03,29,07,10,0.00
2015,03,29,07,11,0.00
2015,03,29,07,12,0.00
2015,03,29,07,13,0.00
2015,03,29,07,14,0.00
2015,03,29,07,15,0.00
2015,03,29,07,16,0.00
2015,03,29,07,17,0.00
2015,03,29,07,18,0.00
2015,03,29,07,19,0.00
2015,03,29,07,20,0.00
2015,03,29,07,21,0.00
2015,03,29,07,22,0.00
2015,03,29,07,23,1.00
2015,03,29,07,24,5.00
2015,03,29,07,25,5.00
2015,03,29,07,26,5.00
2015,03,29,07,27,6.20
2015,03,29,07,28,7.00
2015,03,29,07,29,7.00
2015,03,29,07,30,8.90
2015,03,29,07,31,9.30
2015,03,29,07,32,11.00
2015,03,29,07,33,11.40
2015,03,29,07,34,12.00
2015,03,29,07,35,12.00
2015,03,29,07,36,12.00
2015,03,29,07,37,12.00
2015,03,29,07,38,12.00
2015,03,29,07,39,12.00
2015,03,29,07,40,12.00
2015,03,29,07,41,12.00
2015,03,29,07,42,12.00
2015,03,29,07,43,12.00
2015,03,29,07,44,12.00
2015,03,29,07,45,12.00
2015,03,29,07,46,13.50
2015,03,29,07,47,14.00
2015,03,29,07,48,14.00
2015,03,29,07,49,14.40
2015,03,29,07,50,16.00
2015,03,29,07,51,16.80
2015,03,29,07,52,18.00
2015,03,29,07,53,18.60
2015,03,29,07,54,19.00
2015,03,29,07,55,19.00
2015,03,29,07,56,19.00
2015,03,29,07,57,19.30
2015,03,29,07,58,21.00
2015,03,29,07,59,21.70
2015,03,29,08,00,23.90
2015,03,29,08,01,25.00
2015,03,29,08,02,25.70
2015,03,29,08,03,26.00
2015,03,29,08,04,27.80
2015,03,29,08,05,28.00
2015,03,29,08,06,28.40
2015,03,29,08,07,30.00
2015,03,29,08,08,30.00
2015,03,29,08,09,31.10
2015,03,29,08,10,32.00
2015,03,29,08,11,32.00
2015,03,29,08,12,32.00
2015,03,29,08,13,32.00
2015,03,29,08,14,32.00
2015,03,29,08,15,32.20
2015,03,29,08,16,33.00
2015,03,29,08,17,32.60
2015,03,29,08,18,32.00
2015,03,29,08,19,32.00
2015,03,29,08,20,32.00
2015,03,29,08,21,32.80
2015,03,29,08,22,33.10
2015,03,29,08,23,35.40
2015,03,29,08,24,37.00
2015,03,29,08,25,37.70
2015,03,29,08,26,39.00
2015,03,29,08,27,39.00
2015,03,29,08,28,39.00
2015,03,29,08,29,39.00
2015,03,29,08,30,39.00
2015,03,29,08,31,39.10
2015,03,29,08,32,40.00
2015,03,29,08,33,40.00
2015,03,29,08,34,40.80
2015,03,29,08,35,42.00
2015,03,29,08,36,43.20
2015,03,29,08,37,45.50
2015,03,29,08,38,46.80
2015,03,29,08,39,48.90
2015,03,29,08,40,51.00
2015,03,29,08,41,51.00
2015,03,29,08,42,51.00
2015,03,29,08,43,51.90
2015,03,29,08,44,53.60
2015,03,29,08,45,56.80
2015,03,29,08,46,59.60
2015,03,29,08,47,61.80
2015,03,29,08,48,65.20
2015,03,29,08,49,67.60
2015,03,29,08,50,71.30
2015,03,29,08,51,74.90
2015,03,29,08,52,76.60
2015,03,29,08,53,78.30
2015,03,29,08,54,79.00
2015,03,29,08,55,77.40
2015,03,29,08,56,76.10
2015,03,29,08,57,77.00
2015,03,29,08,58,77.50
2015,03,29,08,59,79.70
2015,03,29,09,00,82.30
2015,03,29,09,01,85.10
2015,03,29,09,02,88.60
2015,03,29,09,03,90.80
2015,03,29,09,04,92.70
2015,03,29,09,05,95.10
2015,03,29,09,06,97.20
2015,03,29,09,07,98.60
2015,03,29,09,08,100.00
2015,03,29,09,09,100.00
2015,03,29,09,10,100.00
2015,03,29,09,11,100.00
2015,03,29,09,12,100.00
2015,03,29,09,13,101.80
2015,03,29,09,14,102.00
2015,03,29,09,15,102.00
2015,03,29,09,16,102.00
2015,03,29,09,17,102.00
2015,03,29,09,18,103.00
2015,03,29,09,19,102.70
2015,03,29,09,20,102.00
2015,03,29,09,21,104.40
2015,03,29,09,22,108.80
2015,03,29,09,23,109.00
2015,03,29,09,24,109.00
2015,03,29,09,25,109.70
2015,03,29,09,26,112.30
2015,03,29,09,27,118.00
2015,03,29,09,28,125.90
2015,03,29,09,29,133.60
2015,03,29,09,30,140.40
2015,03,29,09,31,141.90
2015,03,29,09,32,140.20
2015,03,29,09,33,136.10
2015,03,29,09,34,132.40
2015,03,29,09,35,130.00
2015,03,29,09,36,132.50
2015,03,29,09,37,139.20
2015,03,29,09,38,145.00
2015,03,29,09,39,150.80
2015,03,29,09,40,156.40
2015,03,29,09,41,160.50
2015,03,29,09,42,160.50
2015,03,29,09,43,156.70
2015,03,29,09,44,155.00
2015,03,29,09,45,156.90
2015,03,29,09,46,161.00
2015,03,29,09,47,164.40
2015,03,29,09,48,171.20
2015,03,29,09,49,177.40
2015,03,29,09,50,184.80
2015,03,29,09,51,192.40
2015,03,29,09,52,198.40
2015,03,29,09,53,200.00
2015,03,29,09,54,200.00
2015,03,29,09,55,199.20
2015,03,29,09,56,195.40
2015,03,29,09,57,189.50
2015,03,29,09,58,183.80
2015,03,29,09,59,177.50
2015,03,29,10,00,172.80
2015,03,29,10,01,167.20
2015,03,29,10,02,159.00
2015,03,29,10,03,147.40
2015,03,29,10,04,133.80
2015,03,29,10,05,123.20
2015,03,29,10,06,118.40
2015,03,29,10,07,122.80
2015,03,29,10,08,132.70
2015,03,29,10,09,149.60
2015,03,29,10,10,165.70
2015,03,29,10,11,178.00
2015,03,29,10,12,186.60
2015,03,29,10,13,194.30
2015,03,29,10,14,200.40
2015,03,29,10,15,204.30
2015,03,29,10,16,206.30
2015,03,29,10,17,207.00
2015,03,29,10,18,207.00
2015,03,29,10,19,205.10
2015,03,29,10,20,202.50
2015,03,29,10,21,202.00
2015,03,29,10,22,202.10
2015,03,29,10,23,204.40
2015,03,29,10,24,207.80
2015,03,29,10,25,211.70
2015,03,29,10,26,213.40
2015,03,29,10,27,214.00
2015,03,29,10,28,215.30
2015,03,29,10,29,219.80
2015,03,29,10,30,227.80
2015,03,29,10,31,234.10
2015,03,29,10,32,241.00
2015,03,29,10,33,237.40
2015,03,29,10,34,223.10
2015,03,29,10,35,205.80
2015,03,29,10,36,198.60
2015,03,29,10,37,214.70
2015,03,29,10,38,239.20
2015,03,29,10,39,249.10
2015,03,29,10,40,251.60
2015,03,29,10,41,257.20
2015,03,29,10,42,257.70
2015,03,29,10,43,257.50
2015,03,29,10,44,260.20
2015,03,29,10,45,263.30
2015,03,29,10,46,271.50
2015,03,29,10,47,285.80
2015,03,29,10,48,299.70
2015,03,29,10,49,299.30
2015,03,29,10,50,293.50
2015,03,29,10,51,277.80
2015,03,29,10,52,276.70
2015,03,29,10,53,274.10
2015,03,29,10,54,279.20
2015,03,29,10,55,267.40
2015,03,29,10,56,303.60
2015,03,29,10,57,342.60
2015,03,29,10,58,374.90
2015,03,29,10,59,365.40
2015,03,29,11,00,316.40
2015,03,29,11,01,283.90
2015,03,29,11,02,275.30
2015,03,29,11,03,301.20
2015,03,29,11,04,284.70
2015,03,29,11,05,303.30
2015,03,29,11,06,316.30
2015,03,29,11,07,380.20
2015,03,29,11,08,389.00
2015,03,29,11,09,394.90
2015,03,29,11,10,385.90
2015,03,29,11,11,388.30
2015,03,29,11,12,393.00
2015,03,29,11,13,392.00
2015,03,29,11,14,363.90
2015,03,29,11,15,331.60
2015,03,29,11,16,341.30
2015,03,29,11,17,378.50
2015,03,29,11,18,386.60
2015,03,29,11,19,385.00
2015,03,29,11,20,388.40
2015,03,29,11,21,387.60
2015,03,29,11,22,369.90
2015,03,29,11,23,360.50
2015,03,29,11,24,344.20
2015,03,29,11,25,335.80
2015,03,29,11,26,316.40
2015,03,29,11,27,302.60
2015,03,29,11,28,311.60
2015,03,29,11,29,331.00
2015,03,29,11,30,353.00
2015,03,29,11,31,359.80
2015,03,29,11,32,379.10
2015,03,29,11,33,394.80
2015,03,29,11,34,384.00
2015,03,29,11,35,381.10
2015,03,29,11,36,394.60
2015,03,29,11,37,410.80
2015,03,29,11,38,408.20
2015,03,29,11,39,407.80
2015,03,29,11,40,386.40
2015,03,29,11,41,412.00
2015,03,29,11,42,406.80
2015,03,29,11,43,410.70
2015,03,29,11,44,405.70
2015,03,29,11,45,383.10
2015,03,29,11,46,387.80
2015,03,29,11,47,383.20
2015,03,29,11,48,342.40
2015,03,29,11,49,382.10
2015,03,29,11,50,397.00
2015,03,29,11,51,399.00
2015,03,29,11,52,377.00
2015,03,29,11,53,367.50
2015,03,29,11,54,386.50
2015,03,29,11,55,393.10
2015,03,29,11,56,398.00
2015,03,29,11,57,408.80
2015,03,29,11,58,413.60
2015,03,29,11,59,395.10
2015,03,29,12,00,413.70
2015,03,29,12,01,402.00
2015,03,29,12,02,373.50
2015,03,29,12,03,350.50
2015,03,29,12,04,345.20
2015,03,29,12,05,343.20
2015,03,29,12,06,328.10
2015,03,29,12,07,308.10
2015,03,29,12,08,324.10
2015,03,29,12,09,342.70
2015,03,29,12,10,345.00
2015,03,29,12,11,325.80
2015,03,29,12,12,308.00
2015,03,29,12,13,298.40
2015,03,29,12,14,273.00
2015,03,29,12,15,268.70
2015,03,29,12,16,266.50
2015,03,29,12,17,264.00
2015,03,29,12,18,265.10
2015,03,29,12,19,284.50
2015,03,29,12,20,303.60
2015,03,29,12,21,311.80
2015,03,29,12,22,289.60
2015,03,29,12,23,278.20
2015,03,29,12,24,280.50
2015,03,29,12,25,278.90
2015,03,29,12,26,289.00
2015,03,29,12,27,312.00
2015,03,29,12,28,312.50
2015,03,29,12,29,285.50
2015,03,29,12,30,264.80
2015,03,29,12,31,267.10
2015,03,29,12,32,279.60
2015,03,29,12,33,286.00
2015,03,29,12,34,299.20
2015,03,29,12,35,300.60
2015,03,29,12,36,282.90
2015,03,29,12,37,274.50
2015,03,29,12,38,273.50
2015,03,29,12,39,287.60
2015,03,29,12,40,287.50
2015,03,29,12,41,273.30
2015,03,29,12,42,268.40
2015,03,29,12,43,268.60
2015,03,29,12,44,271.00
2015,03,29,12,45,263.20
2015,03,29,12,46,247.50
2015,03,29,12,47,237.40
2015,03,29,12,48,242.30
2015,03,29,12,49,253.40
2015,03,29,12,50,262.00
2015,03,29,12,51,261.30
2015,03,29,12,52,267.20
2015,03,29,12,53,272.50
2015,03,29,12,54,266.30
2015,03,29,12,55,273.20
2015,03,29,12,56,287.80
2015,03,29,12,57,266.10
2015,03,29,12,58,257.50
2015,03,29,12,59,260.80
2015,03,29,13,00,262.60
2015,03,29,13,01,253.30
2015,03,29,13,02,237.20
2015,03,29,13,03,226.80
2015,03,29,13,04,221.20
2015,03,29,13,05,220.00
2015,03,29,13,06,229.10
2015,03,29,13,07,228.30
2015,03,29,13,08,220.70
2015,03,29,13,09,223.30
2015,03,29,13,10,236.50
2015,03,29,13,11,250.90
2015,03,29,13,12,256.40
2015,03,29,13,13,257.90
2015,03,29,13,14,254.80
2015,03,29,13,15,247.30
2015,03,29,13,16,241.50
2015,03,29,13,17,237.50
2015,03,29,13,18,244.90
2015,03,29,13,19,255.70
2015,03,29,13,20,264.50
2015,03,29,13,21,270.80
2015,03,29,13,22,277.40
2015,03,29,13,23,282.90
2015,03,29,13,24,281.90
2015,03,29,13,25,287.00
2015,03,29,13,26,281.80
2015,03,29,13,27,268.00
2015,03,29,13,28,257.80
2015,03,29,13,29,253.70
2015,03,29,13,30,256.80
2015,03,29,13,31,261.50
2015,03,29,13,32,254.50
2015,03,29,13,33,250.20
2015,03,29,13,34,251.70
2015,03,29,13,35,251.70
2015,03,29,13,36,245.30
2015,03,29,13,37,235.10
2015,03,29,13,38,226.80
2015,03,29,13,39,225.00
2015,03,29,13,40,224.40
2015,03,29,13,41,212.90
2015,03,29,13,42,204.20
2015,03,29,13,43,196.00
2015,03,29,13,44,185.90
2015,03,29,13,45,177.00
2015,03,29,13,46,174.00
2015,03,29,13,47,177.90
2015,03,29,13,48,184.10
2015,03,29,13,49,187.90
2015,03,29,13,50,185.80
2015,03,29,13,51,183.90
2015,03,29,13,52,180.10
2015,03,29,13,53,179.00
2015,03,29,13,54,192.00
2015,03,29,13,55,209.80
2015,03,29,13,56,204.20
2015,03,29,13,57,183.10
2015,03,29,13,58,178.70
2015,03,29,13,59,187.00
2015,03,29,14,00,193.70
2015,03,29,14,01,195.00
2015,03,29,14,02,191.10
2015,03,29,14,03,180.00
2015,03,29,14,04,167.90
2015,03,29,14,05,161.00
2015,03,29,14,06,156.10
2015,03,29,14,07,154.30
2015,03,29,14,08,164.80
2015,03,29,14,09,180.00
2015,03,29,14,10,190.90
2015,03,29,14,11,200.70
2015,03,29,14,12,204.00
2015,03,29,14,13,193.30
2015,03,29,14,14,175.60
2015,03,29,14,15,164.40
2015,03,29,14,16,157.40
2015,03,29,14,17,154.30
2015,03,29,14,18,152.20
2015,03,29,14,19,152.00
2015,03,29,14,20,154.30
2015,03,29,14,21,145.70
2015,03,29,14,22,131.90
2015,03,29,14,23,130.20
2015,03,29,14,24,134.40
2015,03,29,14,25,138.00
2015,03,29,14,26,141.00
2015,03,29,14,27,140.00
2015,03,29,14,28,139.00
2015,03,29,14,29,136.40
2015,03,29,14,30,131.20
2015,03,29,14,31,125.80
2015,03,29,14,32,128.40
2015,03,29,14,33,135.80
2015,03,29,14,34,139.60
2015,03,29,14,35,143.00
2015,03,29,14,36,147.50
2015,03,29,14,37,147.10
2015,03,29,14,38,143.40
2015,03,29,14,39,141.20
2015,03,29,14,40,127.70
2015,03,29,14,41,113.70
2015,03,29,14,42,111.00
2015,03,29,14,43,111.70
2015,03,29,14,44,109.40
2015,03,29,14,45,99.50
2015,03,29,14,46,92.00
2015,03,29,14,47,90.00
2015,03,29,14,48,88.30
2015,03,29,14,49,88.00
2015,03,29,14,50,89.30
2015,03,29,14,51,96.30
2015,03,29,14,52,98.90
2015,03,29,14,53,97.00
2015,03,29,14,54,95.80
2015,03,29,14,55,98.20
2015,03,29,14,56,101.50
2015,03,29,14,57,106.20
2015,03,29,14,58,113.30
2015,03,29,14,59,115.00
2015,03,29,15,00,108.20
2015,03,29,15,01,98.40
2015,03,29,15,02,88.30
2015,03,29,15,03,78.90
2015,03,29,15,04,74.70
2015,03,29,15,05,83.60
2015,03,29,15,06,105.30
2015,03,29,15,07,112.40
2015,03,29,15,08,104.50
2015,03,29,15,09,95.60
2015,03,29,15,10,91.70
2015,03,29,15,11,87.80
2015,03,29,15,12,87.30
2015,03,29,15,13,88.00
2015,03,29,15,14,88.00
2015,03,29,15,15,83.50
2015,03,29,15,16,78.60
2015,03,29,15,17,77.00
2015,03,29,15,18,81.70
2015,03,29,15,19,90.60
2015,03,29,15,20,90.00
2015,03,29,15,21,90.00
2015,03,29,15,22,98.30
2015,03,29,15,23,95.50
2015,03,29,15,24,84.60
2015,03,29,15,25,74.10
2015,03,29,15,26,66.40
2015,03,29,15,27,66.50
2015,03,29,15,28,70.50
2015,03,29,15,29,72.00
2015,03,29,15,30,77.00
2015,03,29,15,31,87.10
2015,03,29,15,32,89.90
2015,03,29,15,33,87.50
2015,03,29,15,34,76.20
2015,03,29,15,35,72.60
2015,03,29,15,36,72.70
2015,03,29,15,37,79.80
2015,03,29,15,38,85.00
2015,03,29,15,39,87.60
2015,03,29,15,40,90.70
2015,03,29,15,41,93.00
2015,03,29,15,42,91.90
2015,03,29,15,43,88.60
2015,03,29,15,44,90.40
2015,03,29,15,45,89.50
2015,03,29,15,46,89.30
2015,03,29,15,47,90.70
2015,03,29,15,48,96.70
2015,03,29,15,49,115.30
2015,03,29,15,50,118.70
2015,03,29,15,51,111.70
2015,03,29,15,52,113.70
2015,03,29,15,53,106.20
2015,03,29,15,54,89.00
2015,03,29,15,55,83.00
2015,03,29,15,56,80.00
2015,03,29,15,57,74.70
2015,03,29,15,58,87.90
2015,03,29,15,59,100.80
2015,03,29,16,00,105.00
2015,03,29,16,01,103.10
2015,03,29,16,02,107.00
2015,03,29,16,03,118.30
2015,03,29,16,04,121.00
2015,03,29,16,05,121.00
2015,03,29,16,06,118.20
2015,03,29,16,07,107.40
2015,03,29,16,08,96.20
2015,03,29,16,09,92.40
2015,03,29,16,10,99.80
2015,03,29,16,11,108.30
2015,03,29,16,12,111.00
2015,03,29,16,13,109.50
2015,03,29,16,14,101.30
2015,03,29,16,15,99.20
2015,03,29,16,16,83.60
2015,03,29,16,17,81.00
2015,03,29,16,18,82.80
2015,03,29,16,19,86.90
2015,03,29,16,20,90.90
2015,03,29,16,21,95.60
2015,03,29,16,22,91.70
2015,03,29,16,23,83.70
2015,03,29,16,24,76.90
2015,03,29,16,25,75.50
2015,03,29,16,26,73.40
2015,03,29,16,27,72.90
2015,03,29,16,28,74.00
2015,03,29,16,29,74.00
2015,03,29,16,30,76.10
2015,03,29,16,31,80.20
2015,03,29,16,32,81.20
2015,03,29,16,33,84.30
2015,03,29,16,34,87.10
2015,03,29,16,35,90.00
2015,03,29,16,36,91.40
2015,03,29,16,37,93.00
2015,03,29,16,38,89.80
2015,03,29,16,39,86.50
2015,03,29,16,40,86.00
2015,03,29,16,41,85.80
2015,03,29,16,42,84.30
2015,03,29,16,43,87.10
2015,03,29,16,44,91.20
2015,03,29,16,45,94.90
2015,03,29,16,46,101.00
2015,03,29,16,47,111.00
2015,03,29,16,48,113.20
2015,03,29,16,49,105.80
2015,03,29,16,50,103.60
2015,03,29,16,51,99.00
2015,03,29,16,52,93.70
2015,03,29,16,53,89.70
2015,03,29,16,54,86.00
2015,03,29,16,55,80.90
2015,03,29,16,56,76.80
2015,03,29,16,57,76.00
2015,03,29,16,58,74.10
2015,03,29,16,59,74.40
2015,03,29,17,00,77.00
2015,03,29,17,01,78.40
2015,03,29,17,02,80.00
2015,03,29,17,03,79.00
2015,03,29,17,04,81.80
2015,03,29,17,05,85.40
2015,03,29,17,06,83.40
2015,03,29,17,07,76.70
2015,03,29,17,08,74.60
2015,03,29,17,09,78.40
2015,03,29,17,10,79.00
2015,03,29,17,11,71.50
2015,03,29,17,12,61.40
2015,03,29,17,13,52.80
2015,03,29,17,14,47.80
2015,03,29,17,15,46.10
2015,03,29,17,16,46.20
2015,03,29,17,17,46.80
2015,03,29,17,18,46.00
2015,03,29,17,19,46.50
2015,03,29,17,20,50.80
2015,03,29,17,21,56.60
2015,03,29,17,22,59.50